This is the latest recevied weather packets stored in our database for station/object K0CVS. If no packets are shown the sender has not sent any weather packets the latest 1 day(s).
| Time | Temp. | Humidity | Pressure | Rain* | Wind** | Luminosity | Snow |
|---|---|---|---|---|---|---|---|
| 1778079692 | 11.67° C | 52% | 1018.9 hPa | 0 mm | - | 63 W/m² | - |
| 1778078178 | 10.56° C | 60% | 1018.9 hPa | 0 mm | - | 51 W/m² | - |
| 1778076364 | 10° C | 59% | 1018.7 hPa | 0 mm | - | 69 W/m² | - |
| 1778075758 | 10° C | 62% | 1018.6 hPa | 0 mm | - | 57 W/m² | - |
| 1778075454 | 10° C | 62% | 1018.8 hPa | 0 mm | - | 58 W/m² | - |
| 1778074544 | 10° C | 67% | 1018.3 hPa | 0 mm | - | 90 W/m² | - |
| 1778074241 | 10° C | 69% | 1018.3 hPa | 1.27 mm | - | 105 W/m² | - |
| 1778071819 | 8.33° C | 78% | 1017.9 hPa | 0 mm | - | 33 W/m² | - |
| 1778070912 | 7.78° C | 84% | 1017.5 hPa | 0 mm | - | 32 W/m² | - |
| 1778070306 | 7.78° C | 87% | 1017.4 hPa | 0 mm | - | 33 W/m² | - |
| 1778069398 | 7.78° C | 89% | 1017.1 hPa | 0 mm | - | 25 W/m² | - |
| 1778068189 | 7.78° C | 88% | 1016.8 hPa | 0 mm | - | 10 W/m² | - |
| 1778067886 | 7.78° C | 87% | 1016.5 hPa | 0 mm | - | 11 W/m² | - |
| 1778067282 | 7.78° C | 87% | 1016.2 hPa | 0 mm | - | 5 W/m² | - |
| 1778066978 | 7.78° C | 86% | 1016 hPa | 0 mm | - | 2 W/m² | - |
| 1778066676 | 7.78° C | 87% | 1016 hPa | 0 mm | - | 1 W/m² | - |
| 1778066373 | 7.78° C | 87% | 1016.2 hPa | 0 mm | - | 1 W/m² | - |
| 1778066071 | 7.78° C | 86% | 1016.1 hPa | 0 mm | - | 0 W/m² | - |
| 1778064254 | 7.78° C | 86% | 1016.8 hPa | 0 mm | - | 0 W/m² | - |
| 1778062134 | 7.78° C | 89% | 1016.8 hPa | 0 mm | - | 0 W/m² | - |
| 1778061530 | 7.78° C | 88% | 1016.2 hPa | 0 mm | - | 0 W/m² | - |
| 1778061228 | 7.22° C | 88% | 1015.9 hPa | 0 mm | - | 0 W/m² | - |
| 1778060924 | 7.22° C | 88% | 1015.8 hPa | 0 mm | - | 0 W/m² | - |
| 1778060623 | 7.22° C | 88% | 1016 hPa | 0 mm | - | 0 W/m² | - |
| 1778060018 | 7.22° C | 88% | 1015.5 hPa | 1.78 mm | - | 0 W/m² | - |
* Rain latest hour (hover to see other rain measurements)
** Current wind speed in m/s (hover to see current wind gust speed)